Дашогуз

Туркменистан     41°49′42″N   59°57′57″E
темп.,
°C
ветер,
м/с
пор.,
м/с
влажн.,
%
обл.,
%
осадки,
мм/ч
давл.,
гПа
погр.,
м
22 апреля, чт
чт2223:00+14всв7121178 0.0 1025680
02:00+12всв6121312 0.0 1026472
05:00+10в713154 0.0 1026434
08:00+11в811165 0.0 1028514
11:00+16в89125 0.0 1027880
14:00+21в88115 0.0 10261216
17:00+22в781398 0.0 10251381
20:00+20в61113100 0.0 1024501
23 апреля, пт
пт2323:00+18в6148100 0.0 1023509
02:00+16в61313100 0.0 1023449
05:00+14в6122311 0.0 1022322
08:00+15в711215 0.0 1022395
11:00+21вюв781529 0.0 1021835
14:00+26вюв77997 0.0 10191414
17:00+27вюв677100 0.0 10171534
20:00+24в468100 0.0 101794
24 апреля, сб
сб2423:00+22в469100 0.0 1017120
02:00+22юв5911100 0.0 1016177
05:00+20ю461877 0.0 101593
08:00+22ююз571733 0.0 1016342
11:00+25з662373 0.0 1016850
14:00+29сз771336 0.0 10161601
17:00+29ссз76150 0.0 10161958
20:00+22ссв81026100 0.0 1018505
25 апреля, вс
вс2523:00+19ссв7112710 0.0 1019336
02:00+17ссв5113123 0.0 1019286
05:00+15ссв4103639 0.0 1020250
08:00+18св61033100 0.0 1021425
11:00+24всв661699 0.0 1021993
14:00+27всв5511100 0.0 10201529
17:00+27всв6510100 0.0 10191618
20:00+25всв4613100 0.0 1019133
26 апреля, пн
пн2623:00+23всв4917100 0.0 1019201
02:00+21всв613172 0.0 1017289
05:00+19в511220 0.0 1017215
08:00+22в812200 0.0 1017346
11:00+29вюв781435 0.0 1016897
14:00+32вюв66132 0.0 10141809
17:00+33в66131 0.0 10122274
20:00+29в591436 0.0 1012182